Theta_e
349 351 352 349 344 341 338 338 337 337 338 336 336 334 332 331 332 332 334 334 334 334 334 333 332 331 333 335 335 336 339 341 339 332 325 322 322 323 328 334 338 342 343 343 343 343 342 340 341 341 341 341 342 341 340 340 339 338 337 336 334 332 333 335 337 334 329 328 331 334 333 330 329 331 331 328 325 327 331 335 335 333 332 331 331
349 350 352 348 344 341 338 338 337 337 337 335 334 332 331 332 333 333 334 334 335 334 333 332 330 331 331 333 334 336 339 337 333 327 325 326 325 328 333 337 341 343 343 343 343 343 342 340 340 340 340 341 342 341 340 339 337 335 331 327 325 326 330 333 331 328 326 329 333 334 332 329 328 328 329 328 325 329 333 334 334 332 331 331 330
349 350 351 347 344 340 337 337 337 336 335 334 333 332 332 332 334 334 335 335 335 334 333 331 330 331 330 330 332 336 336 332 330 329 331 333 333 334 337 340 341 342 342 342 342 342 341 339 339 341 341 341 342 341 340 338 333 328 322 319 318 320 325 326 324 327 329 329 331 332 330 329 326 323 324 325 326 330 332 332 333 332 330 331 330
351 351 351 349 345 340 337 337 337 336 335 334 333 332 332 333 334 335 336 335 335 335 333 331 329 329 329 329 331 333 334 334 337 337 337 339 339 339 340 341 342 342 342 341 342 342 340 338 340 342 341 341 341 340 338 334 327 321 319 319 319 320 322 324 325 329 329 328 331 332 332 330 325 323 322 323 327 331 331 330 330 330 329 330 329
351 352 351 349 347 342 336 337 337 336 334 333 332 332 332 333 334 335 335 336 336 335 333 330 328 328 327 328 332 336 338 339 341 341 341 341 342 341 341 342 342 341 341 342 343 341 340 339 340 341 341 340 340 339 336 329 322 320 321 321 323 324 325 327 329 330 330 331 335 337 336 333 327 323 323 324 328 329 328 327 328 329 329 329 329
352 353 351 349 348 343 337 337 337 336 335 334 333 332 333 333 334 335 335 336 336 335 333 329 328 327 328 329 334 338 340 341 341 341 342 342 343 341 340 341 341 340 341 342 341 341 340 339 341 342 341 340 340 339 333 325 322 321 322 323 325 327 327 328 329 331 333 334 336 338 336 335 330 324 324 325 326 326 325 326 329 329 330 330 330
352 352 352 351 348 343 338 337 337 336 335 334 333 332 333 333 334 335 335 336 336 334 331 329 328 329 331 334 337 339 340 341 341 341 341 342 342 341 340 340 340 341 341 341 341 341 340 340 342 343 342 341 341 338 329 323 324 324 325 324 325 327 328 328 330 330 332 335 337 338 336 336 333 325 324 326 326 325 327 329 330 329 330 331 330
352 352 352 352 349 345 340 337 337 335 334 332 332 332 332 333 334 334 335 336 335 333 330 328 329 333 337 339 340 340 340 340 341 341 341 341 340 340 340 340 340 341 340 339 340 341 340 342 342 343 342 340 339 334 325 324 327 328 329 328 327 328 328 329 330 330 330 333 335 338 337 335 334 329 325 327 327 325 329 331 330 329 329 330 330
352 352 352 352 350 346 340 338 337 335 334 333 331 332 332 334 334 334 335 335 334 332 329 329 331 334 338 340 341 340 340 339 340 340 340 340 340 340 340 338 337 338 338 338 339 340 341 343 342 342 341 339 336 329 324 327 330 331 332 331 330 328 330 330 330 331 331 333 336 336 334 334 335 331 325 326 326 327 331 332 331 330 328 328 329
352 350 351 352 349 347 342 338 338 338 336 335 333 332 333 333 333 334 335 335 335 332 330 328 329 331 334 338 340 340 340 339 339 339 340 340 339 340 339 338 337 338 338 338 340 341 342 344 343 343 342 338 331 325 326 328 331 333 333 331 330 330 330 331 331 332 334 336 335 330 330 335 335 332 327 325 326 330 332 332 332 330 327 326 327
350 348 351 351 347 346 343 339 339 338 338 337 336 335 334 334 333 333 335 335 335 333 330 329 331 331 334 337 339 339 340 339 339 339 339 339 339 340 339 340 340 341 342 341 342 343 343 343 343 342 341 337 328 326 329 330 332 332 331 330 329 329 330 331 332 335 337 338 334 327 327 333 335 333 329 327 326 331 333 331 331 329 327 326 326
350 350 351 347 344 345 343 340 339 338 338 338 338 338 337 336 335 334 334 336 335 334 330 331 334 333 337 339 340 340 339 339 340 339 339 339 340 340 340 339 340 342 343 343 343 343 343 343 342 342 339 335 329 328 330 330 332 331 330 330 328 328 329 331 332 337 339 337 332 329 330 333 335 332 329 329 326 329 331 330 329 328 327 326 327
351 352 349 344 344 344 343 342 339 339 340 341 341 339 338 337 337 336 335 336 336 334 331 331 332 332 336 337 337 338 337 338 339 339 339 340 340 340 339 338 340 342 342 343 343 342 343 341 340 338 336 334 329 328 330 331 331 330 330 330 328 327 329 333 335 337 338 336 332 332 333 334 334 331 330 331 328 329 329 328 328 328 328 326 326
351 352 349 344 343 344 343 343 342 342 343 343 343 341 340 339 338 338 337 336 337 335 332 331 330 331 334 334 333 333 334 335 336 338 338 338 340 340 339 339 340 342 342 341 341 341 340 336 331 328 328 330 328 327 330 331 330 329 330 330 328 328 329 334 338 338 338 336 334 334 334 335 334 331 330 330 330 331 330 329 329 329 329 326 326
352 351 349 344 341 343 344 343 343 344 344 344 343 342 341 340 340 339 338 337 337 335 332 331 332 332 334 333 330 329 330 330 330 333 336 336 338 340 340 339 340 340 341 341 341 340 336 331 325 321 322 323 324 327 331 331 329 329 329 329 327 328 328 331 338 339 337 337 335 334 336 336 334 331 330 330 332 333 332 330 329 329 329 328 326
352 350 349 345 341 342 343 342 343 343 343 343 344 344 343 342 341 340 339 338 338 337 334 331 332 332 333 333 331 329 328 326 326 330 334 335 337 339 339 340 339 339 340 341 341 340 336 332 327 323 323 323 324 328 331 330 329 328 327 327 327 327 328 328 333 338 338 337 335 335 337 336 335 332 329 330 333 333 332 331 330 328 328 329 327
352 350 349 347 344 344 343 342 342 342 343 343 344 344 343 342 342 340 340 339 339 338 335 331 331 332 333 335 333 330 327 324 325 328 332 334 335 337 340 340 338 338 339 339 340 339 337 334 330 326 327 328 329 330 330 330 328 327 326 326 327 327 328 327 331 337 338 337 336 335 337 336 334 331 329 331 334 334 332 331 330 329 328 329 328
352 350 349 348 347 346 346 344 342 344 343 343 344 344 342 341 341 340 339 339 339 338 336 332 331 331 333 335 335 332 328 325 324 324 327 330 332 333 337 339 337 337 338 338 338 339 338 337 334 330 328 328 328 329 329 328 327 326 326 326 327 327 327 326 332 337 337 337 337 336 337 333 330 330 329 331 334 334 332 331 330 329 328 329 328
351 351 350 348 347 347 348 346 344 347 345 344 344 343 341 340 339 339 338 338 338 338 336 332 331 330 332 335 335 334 332 329 326 323 325 325 327 328 332 336 337 337 335 336 337 338 338 337 336 334 331 329 327 326 326 326 326 326 326 325 326 326 326 328 334 337 336 337 338 338 334 330 328 329 330 331 334 334 332 331 330 330 329 329 328
351 350 350 348 348 347 348 348 347 348 347 347 346 342 340 339 339 338 337 337 337 336 335 333 330 330 332 334 335 337 337 335 333 329 327 325 325 329 331 332 334 336 335 334 333 334 335 336 337 336 334 332 331 327 325 324 325 325 325 325 326 325 327 331 335 336 335 337 338 338 332 327 328 329 330 331 333 334 332 331 331 330 329 329 328
351 349 349 347 348 348 347 347 347 348 347 349 347 342 337 338 340 339 338 338 337 335 335 333 331 332 332 333 336 340 342 340 339 336 333 331 329 330 332 331 330 332 335 334 332 331 332 333 335 336 336 335 334 331 328 326 324 323 323 324 324 323 327 332 334 335 336 337 339 338 332 328 328 329 330 330 333 334 332 331 330 330 329 329 328
350 349 348 348 348 348 346 345 346 347 347 348 348 344 335 336 340 338 337 336 336 335 334 333 333 335 333 334 340 343 343 342 342 341 340 339 334 330 327 327 327 328 330 332 332 333 334 333 332 332 334 336 334 334 333 333 330 327 323 322 322 321 326 332 333 334 336 337 338 338 333 328 327 328 330 329 332 334 332 331 330 329 329 328 327
349 348 348 348 348 347 343 343 346 346 348 347 348 347 338 338 342 339 338 335 336 336 335 338 339 340 338 339 343 343 343 343 343 343 343 342 340 335 329 324 325 327 327 329 330 330 332 334 332 330 331 333 334 335 335 336 335 334 330 325 322 321 327 333 332 333 336 337 337 336 332 328 328 328 329 329 331 334 332 331 331 330 329 328 327
348 348 348 348 347 347 345 343 346 346 347 347 348 348 341 343 346 344 342 338 338 338 339 344 344 344 343 342 344 342 343 343 343 343 343 342 342 341 337 329 326 328 328 329 331 329 329 332 333 329 326 329 333 335 335 335 334 335 335 330 326 324 328 332 332 333 335 337 337 336 332 329 327 326 328 329 331 334 333 332 331 330 330 329 327
348 348 347 347 347 347 346 344 345 347 346 346 347 349 345 346 347 347 346 343 342 342 344 346 344 344 344 343 343 343 344 343 342 343 343 342 342 341 340 335 332 334 333 333 336 337 335 335 334 329 325 327 334 336 335 334 333 333 334 333 330 328 330 332 332 333 335 336 337 336 333 331 328 327 328 328 332 335 333 332 331 330 330 329 328
348 348 347 347 347 347 347 345 345 345 345 345 346 347 347 346 346 346 346 345 345 345 345 345 344 344 344 343 343 343 345 343 343 343 343 342 341 342 341 339 339 340 340 339 339 340 339 338 337 335 332 331 334 335 334 333 332 332 333 333 332 331 331 332 332 333 335 335 336 336 334 332 330 327 327 327 331 334 333 333 332 330 331 329 328
349 348 347 348 348 348 348 347 346 345 344 344 344 346 346 345 345 345 346 345 345 345 346 345 344 344 344 344 344 344 344 344 343 343 343 341 340 341 341 341 341 341 342 341 341 341 340 338 336 337 337 334 334 333 333 332 332 332 331 331 331 331 331 332 333 333 335 336 335 336 334 333 332 330 328 326 329 332 334 334 332 331 331 329 328
348 347 347 349 350 350 349 349 347 345 345 344 343 344 344 345 344 344 346 344 344 345 345 345 345 344 344 345 345 344 344 343 343 342 341 341 339 339 340 341 341 341 341 340 340 341 341 340 337 337 337 336 335 333 332 332 332 332 331 330 329 330 331 332 333 334 335 337 337 337 335 333 333 332 329 328 327 330 334 334 332 332 331 330 328
347 347 348 349 350 350 350 349 349 348 348 346 344 344 344 344 345 344 346 345 344 345 344 344 344 345 345 345 345 344 343 343 343 343 342 340 340 340 340 340 340 341 340 340 340 340 341 340 338 338 339 339 336 332 332 332 331 331 330 328 328 328 330 332 333 334 334 336 338 337 336 333 333 332 331 330 327 327 334 335 333 333 332 331 330
348 349 349 350 351 351 350 349 350 350 349 348 346 345 345 346 346 345 346 346 345 345 344 344 345 344 345 345 344 343 343 344 344 343 342 342 341 341 341 340 339 339 340 340 340 339 340 340 340 340 339 339 336 332 332 332 331 331 331 329 328 327 328 330 332 333 334 335 336 337 336 334 333 332 332 332 329 327 332 335 334 333 332 332 331
349 349 350 350 352 351 351 350 350 350 350 349 346 346 346 347 347 346 346 346 345 346 345 346 345 345 345 345 345 344 344 345 345 344 344 344 342 342 342 341 340 339 339 339 339 340 340 340 340 340 339 337 335 334 334 334 333 332 332 331 331 328 327 328 330 333 335 334 334 337 337 335 333 332 331 333 331 327 330 335 335 333 333 332 331
349 349 349 350 351 351 351 350 349 350 349 349 348 347 348 347 347 347 347 347 346 347 346 346 346 345 345 345 345 344 344 345 345 344 344 345 343 342 343 341 341 340 340 339 338 339 340 340 339 339 338 337 336 336 336 336 335 333 331 331 332 331 329 328 329 331 333 333 334 337 337 335 335 333 331 332 333 329 327 332 336 335 334 333 333
348 348 349 349 350 351 351 350 350 349 349 349 348 348 348 347 348 348 347 347 347 347 346 346 346 345 345 345 345 344 344 344 344 344 343 344 344 343 343 342 341 341 340 339 338 339 340 339 338 338 338 337 337 336 337 337 338 337 334 333 333 331 330 330 330 330 333 334 333 335 339 338 336 335 332 331 332 331 327 329 335 336 334 333 333
348 347 348 349 350 351 351 351 350 350 349 348 348 348 348 347 347 347 347 348 348 346 346 346 346 346 346 346 346 345 345 344 344 343 343 344 344 343 343 342 342 342 341 340 339 340 341 341 341 340 338 338 339 338 338 339 339 339 337 336 335 332 330 331 331 331 331 332 332 333 336 340 339 337 334 331 331 332 328 327 332 337 336 334 334
346 347 348 348 349 350 351 351 351 350 350 349 348 348 348 348 347 347 347 347 347 346 347 347 347 347 346 346 346 345 345 345 345 344 344 344 343 343 343 342 343 343 341 340 340 341 341 342 342 341 340 339 339 339 339 338 338 338 338 336 336 333 331 331 332 332 330 331 333 333 334 339 341 339 337 333 331 331 330 326 328 334 336 335 334
346 348 349 349 349 350 350 351 350 351 350 348 348 347 347 347 347 347 347 347 347 347 347 347 347 347 347 346 346 346 345 344 345 345 344 345 343 343 343 343 343 343 342 341 341 341 340 341 341 340 340 340 339 339 338 337 336 337 337 336 336 335 332 332 332 331 332 331 331 332 334 337 339 339 338 336 332 330 331 329 327 331 334 335 334
346 347 348 348 349 348 349 350 350 350 349 348 347 347 346 346 346 346 347 347 346 347 346 347 347 347 347 347 346 346 345 345 345 345 345 344 344 344 343 344 344 343 341 340 340 340 340 340 341 339 339 340 339 339 339 338 337 336 336 336 336 336 335 334 331 331 332 332 331 331 333 334 337 340 340 340 338 333 331 330 328 328 330 334 334
346 347 348 347 347 347 348 349 349 349 348 348 347 347 346 345 345 345 346 346 346 346 346 346 346 347 347 346 346 345 345 345 345 345 345 345 344 344 344 344 344 343 341 341 340 340 340 340 339 338 338 339 338 337 338 339 339 338 337 336 336 336 336 335 332 331 332 332 331 332 332 332 335 339 342 342 341 338 335 333 330 327 327 330 333
347 347 348 347 347 347 347 347 348 348 347 347 347 347 346 345 345 345 345 345 345 346 345 345 346 346 346 346 346 346 345 346 345 345 345 345 345 344 343 343 343 343 343 342 342 340 340 340 339 339 338 338 339 337 337 339 340 339 338 338 337 336 336 336 334 334 333 332 331 332 332 332 334 337 341 342 342 341 340 338 333 329 327 327 330
348 347 347 346 346 346 346 346 347 347 347 346 345 346 346 345 346 346 345 346 346 346 346 346 346 346 347 346 345 345 345 346 346 346 345 345 344 344 343 342 342 343 342 342 343 341 341 340 340 340 339 338 339 338 337 339 339 338 337 337 338 337 337 336 336 336 335 333 333 332 331 332 333 334 337 340 342 342 341 341 336 332 330 327 327
347 346 346 345 345 345 346 346 347 347 346 346 346 347 346 346 346 345 346 345 344 345 345 345 345 345 344 344 344 344 344 345 345 345 344 344 344 344 343 343 343 342 342 342 341 341 341 341 340 340 339 337 337 338 339 339 338 337 337 338 338 337 336 336 337 337 337 335 334 334 332 332 333 331 334 338 342 341 341 342 338 335 333 330 329
346 345 345 344 345 345 346 346 347 346 347 346 346 345 345 344 344 344 344 343 343 343 343 342 342 342 341 342 343 342 342 342 343 342 343 342 342 342 343 343 343 342 342 341 341 340 340 341 341 339 338 335 334 337 339 338 337 337 338 338 338 337 335 336 337 337 338 337 336 336 334 333 333 333 335 338 341 342 342 341 338 337 336 335 334
344 344 344 343 344 345 345 345 344 345 344 344 344 344 344 344 344 342 342 341 340 338 338 340 340 340 339 340 340 340 340 339 340 340 340 340 340 340 341 341 342 342 341 341 341 341 340 340 340 339 338 335 334 336 338 338 338 338 338 338 338 339 338 337 337 336 337 337 337 337 336 334 333 333 334 336 339 341 342 340 338 338 338 337 337
343 343 343 343 343 343 343 342 341 341 340 341 342 340 339 340 339 339 337 337 337 336 336 338 337 337 337 337 337 336 337 337 337 337 337 338 339 339 339 339 340 341 341 341 340 341 341 340 340 339 338 337 336 337 338 339 339 338 338 339 340 340 340 339 338 337 336 337 337 338 337 335 333 333 333 334 335 339 341 341 338 337 339 339 338
342 342 342 342 341 340 340 340 340 339 339 340 339 336 335 336 337 337 337 336 335 334 335 333 331 331 331 331 331 330 331 331 331 332 334 335 336 336 337 338 338 339 340 341 341 341 341 341 340 339 338 338 338 338 338 338 339 339 338 340 340 340 341 339 339 339 338 338 338 338 338 335 333 332 333 334 333 335 338 339 338 337 338 339 337
340 340 339 339 338 338 338 337 336 336 336 336 335 335 335 334 336 336 335 334 332 327 326 325 324 323 324 323 322 321 323 323 323 325 327 328 328 328 331 334 335 336 338 339 339 340 341 340 340 340 339 339 338 337 338 338 338 338 338 338 338 339 340 339 338 339 338 336 336 336 336 335 334 333 333 333 334 334 336 337 337 337 338 337 336
338 338 337 336 335 333 332 329 329 329 330 329 329 329 327 327 328 328 326 328 327 323 321 320 319 318 318 318 316 315 317 317 316 316 315 317 317 318 321 324 326 328 331 334 336 338 339 339 339 338 339 339 337 335 337 338 337 338 337 337 338 338 339 339 338 339 338 337 336 336 336 337 336 334 333 334 334 334 334 336 338 338 337 337 337
334 332 331 330 328 326 323 322 323 324 325 326 325 324 323 322 322 322 320 321 322 320 321 321 319 317 316 318 317 315 315 315 314 313 312 312 312 312 313 315 315 317 320 324 329 332 334 336 337 338 338 338 338 336 337 337 337 337 335 335 337 337 337 337 337 336 336 337 337 337 338 337 336 335 335 336 336 335 333 335 337 338 338 337 337
327 326 325 324 323 321 320 320 321 322 323 323 323 322 322 321 320 321 320 319 319 318 319 320 319 318 318 319 319 318 317 316 315 315 314 313 312 311 311 310 311 312 313 316 319 321 324 329 333 336 338 338 337 336 336 336 335 336 335 334 335 336 334 334 335 335 335 335 336 336 338 337 338 337 336 336 336 335 334 335 336 338 338 338 338
324 323 322 321 320 320 320 321 321 322 321 320 321 321 321 321 320 321 320 319 319 318 317 320 320 320 320 319 319 319 319 318 316 316 317 315 314 313 312 311 311 311 311 312 314 316 317 320 323 327 332 335 337 336 335 335 335 335 335 333 334 335 334 333 334 335 334 335 336 336 337 338 340 339 336 336 335 336 335 335 337 337 337 339 340
323 322 321 320 320 321 321 321 321 321 321 320 321 321 321 321 320 320 320 319 319 319 319 320 320 319 319 318 318 318 318 318 317 318 317 317 317 316 315 314 313 312 311 312 312 313 313 315 316 318 320 326 331 335 335 334 335 335 334 334 333 334 334 334 334 334 334 336 336 336 336 337 338 338 337 336 337 337 336 335 336 337 337 339 341
Wind_Speed
15 17 18 16 14 15 18 17 17 16 15 15 14 13 13 13 14 14 14 14 14 13 12 11 10 10 9 9 8 7 6 6 7 8 10 11 12 13 13 12 12 11 11 11 11 10 8 8 7 6 6 7 8 8 9 9 8 7 6 5 5 5 6 8 9 7 7 7 9 10 8 8 9 9 8 8 9 11 11 11 11 10 9 9 8
16 18 17 15 14 16 16 15 16 15 15 15 15 14 14 14 14 14 14 14 13 13 12 11 10 9 9 9 8 8 7 7 8 9 10 12 13 13 11 10 10 10 10 10 10 9 8 7 6 6 7 9 11 11 10 9 8 6 4 4 3 3 5 6 6 5 6 7 9 10 9 9 9 9 9 9 10 10 10 11 11 8 8 8 7
16 17 15 15 15 18 18 17 16 16 16 15 15 15 14 14 13 14 13 13 13 12 11 10 10 9 9 8 8 8 8 8 9 10 11 11 11 11 10 9 9 9 9 9 9 8 7 6 6 7 9 11 13 11 10 9 7 5 5 5 5 4 5 6 7 9 9 9 10 10 10 11 10 10 10 10 11 11 10 10 9 8 8 7 6
16 17 15 14 15 20 21 19 18 17 17 16 16 15 15 14 13 13 13 12 12 12 11 10 9 9 9 8 8 8 9 9 9 9 10 10 9 8 8 8 8 8 8 8 7 6 6 6 6 8 11 12 12 11 9 8 7 7 8 10 11 10 10 10 11 11 10 10 10 10 12 11 11 12 11 11 11 10 9 7 7 7 7 6 6
16 15 16 15 15 19 21 20 19 19 18 17 16 15 15 14 13 13 12 12 11 11 10 10 9 9 8 8 9 9 9 9 8 8 8 8 8 7 7 7 7 7 7 6 6 5 5 5 5 8 11 13 12 11 9 8 8 9 10 13 15 14 13 12 11 10 10 10 10 12 11 8 10 11 10 10 9 8 6 5 7 7 7 7 7
17 15 15 14 15 16 20 20 19 19 18 17 16 15 15 14 13 12 12 11 10 10 10 10 9 9 9 9 10 9 9 9 8 8 8 8 7 6 7 7 6 5 5 5 4 4 4 4 5 8 11 12 11 9 8 9 10 10 11 13 14 13 12 11 10 10 10 9 10 12 10 8 8 9 9 8 8 7 6 7 8 8 7 7 7
19 16 14 13 14 17 19 20 19 19 18 17 16 15 15 14 13 12 11 10 10 9 9 9 9 10 10 10 10 10 9 8 8 8 8 8 7 6 7 5 5 5 4 3 3 4 3 4 6 8 11 11 9 8 8 10 10 10 10 11 11 10 10 9 9 9 9 9 10 12 11 10 7 7 9 8 8 7 9 8 7 7 6 6 5
18 16 15 14 13 16 18 19 19 18 17 16 16 15 14 13 12 11 10 10 9 9 9 9 9 10 10 10 10 10 9 9 9 9 9 8 7 6 5 3 4 5 3 1 2 3 3 4 6 8 11 10 8 7 9 10 10 9 8 8 8 8 8 7 7 7 8 11 11 11 11 10 5 5 8 7 8 8 8 7 5 6 6 7 4
16 16 16 13 12 15 15 16 17 16 16 15 15 14 13 13 12 11 10 9 9 9 9 9 9 9 10 10 10 10 9 9 9 9 8 7 7 6 3 2 2 2 1 1 1 2 3 5 7 10 11 8 7 8 10 10 8 6 6 6 5 5 5 4 4 4 5 8 11 12 11 10 8 5 8 8 8 9 8 6 5 6 7 8 6
14 14 15 13 13 14 14 15 14 14 14 13 13 13 12 12 11 10 10 9 9 9 9 9 9 9 10 11 11 11 10 10 9 8 7 7 7 5 3 3 3 2 1 1 1 2 4 6 9 11 10 7 6 8 11 9 6 5 5 4 4 3 3 3 3 4 3 7 7 6 8 10 10 6 8 8 9 10 8 8 8 8 8 6 5
14 14 15 15 14 14 13 14 13 12 12 11 11 11 11 10 10 10 10 9 9 9 9 9 9 10 11 11 11 10 10 9 9 8 7 7 6 4 5 5 4 4 3 3 4 4 6 8 10 9 8 6 6 8 10 7 5 4 3 2 2 1 2 3 6 7 9 11 5 4 5 10 11 6 8 8 9 9 8 10 10 8 6 3 5
15 16 16 16 16 14 14 14 13 13 11 10 10 10 9 9 9 9 9 9 9 9 9 9 9 11 11 10 10 10 10 9 9 8 8 8 6 5 6 6 6 6 5 6 7 7 8 10 10 8 6 5 6 8 8 6 4 3 2 0 1 2 3 4 7 9 14 8 4 5 7 11 10 6 7 7 8 8 7 8 7 5 5 6 7
16 17 17 17 17 15 15 14 14 13 12 11 10 10 10 9 9 9 9 9 10 10 9 9 9 10 10 9 10 9 9 9 9 9 8 8 6 5 6 6 6 7 7 8 8 8 9 9 8 6 5 5 6 8 7 5 4 3 3 3 2 4 4 3 5 7 10 6 2 4 11 11 7 6 6 6 6 8 7 6 6 7 7 8 7
19 19 18 18 17 16 15 14 14 13 12 11 10 9 9 9 8 9 9 9 9 9 9 9 9 10 9 8 8 9 8 7 8 8 8 7 6 5 6 6 6 7 8 8 8 8 8 7 6 5 4 5 6 8 7 6 5 5 4 5 4 5 5 3 6 8 8 5 2 3 10 9 6 5 4 4 5 8 8 7 8 8 7 7 6
20 20 18 18 18 17 15 15 14 13 12 11 10 9 9 8 8 8 8 8 8 8 8 8 9 9 8 7 7 8 7 6 6 6 6 7 6 6 6 7 7 7 7 7 7 8 7 6 5 4 5 5 6 8 8 7 6 6 5 5 5 5 6 5 6 9 10 6 2 3 7 6 5 3 3 4 7 10 9 9 9 8 7 7 6
20 20 18 19 19 18 17 15 14 13 13 11 11 10 9 8 7 7 7 7 7 7 7 7 8 8 7 7 7 7 6 5 5 5 5 6 7 6 6 7 7 7 7 6 7 7 6 5 5 5 5 5 6 8 8 8 7 6 5 5 5 6 7 7 6 7 7 3 1 3 6 5 3 3 3 5 10 11 9 9 9 8 7 7 6
19 19 18 18 18 17 16 15 14 13 13 11 11 10 9 8 7 6 6 6 6 6 6 6 7 7 6 6 7 6 5 5 5 5 4 5 5 6 6 5 6 5 6 6 7 6 6 5 4 4 4 5 6 7 8 8 7 6 6 6 6 6 7 7 6 6 5 4 2 3 4 4 3 3 3 7 12 11 9 9 8 8 7 7 6
18 18 18 18 17 16 15 14 14 13 12 11 10 10 8 8 7 6 6 6 6 5 5 5 5 5 5 6 7 6 5 5 4 4 4 4 4 5 6 5 4 4 4 4 5 5 5 5 5 5 5 6 6 7 8 8 8 7 7 6 6 6 7 7 6 6 7 4 1 3 4 3 2 4 5 8 12 11 10 9 8 8 7 7 6
17 18 18 17 16 15 15 14 14 13 12 11 10 10 9 8 8 8 8 7 7 6 5 4 4 5 5 5 6 6 6 5 4 4 4 3 3 3 4 4 4 3 3 3 3 5 4 5 5 6 6 7 7 8 8 9 8 8 8 8 7 6 7 8 6 7 6 2 2 2 3 2 2 4 5 8 12 11 9 9 8 7 7 7 6
17 17 17 16 16 16 16 15 14 13 12 11 10 10 9 9 9 9 8 8 8 7 5 5 5 5 5 6 6 6 5 5 4 5 5 4 4 3 3 3 4 4 4 3 3 4 4 4 5 6 6 7 8 8 8 9 9 9 9 9 8 7 7 7 8 8 5 1 1 2 1 2 3 5 6 8 11 11 9 9 8 7 7 7 6
16 16 16 16 16 16 16 15 14 14 13 12 11 10 9 9 9 9 8 8 8 7 7 6 5 5 6 6 6 6 5 3 3 4 4 4 4 4 4 4 5 6 5 5 4 4 4 5 5 6 6 7 8 8 8 9 9 10 10 10 8 8 8 8 10 8 4 2 2 3 4 2 4 5 6 8 11 11 9 9 8 8 8 7 6
16 15 15 16 15 16 15 14 15 14 14 14 13 10 10 10 9 9 9 8 8 8 8 7 6 5 6 6 6 6 6 5 4 6 5 4 4 3 4 5 5 6 6 6 5 5 5 6 6 7 7 7 8 9 8 9 10 10 11 10 10 9 8 8 10 8 5 3 4 5 4 3 4 4 6 7 10 10 8 9 9 8 8 8 6
16 16 16 16 15 15 13 13 15 14 14 14 13 11 11 11 10 9 9 8 8 8 7 8 6 6 6 6 7 5 6 6 5 7 6 6 6 4 3 4 5 6 6 6 6 6 6 7 7 8 8 8 9 9 8 8 10 11 11 11 11 10 8 9 10 8 5 5 6 6 4 4 4 4 6 7 10 10 8 9 9 8 9 8 7
16 16 16 16 15 14 12 13 15 14 14 14 13 11 11 11 11 10 9 8 8 8 7 8 8 9 8 8 8 7 7 7 6 7 7 7 8 6 4 4 5 5 5 6 6 5 6 7 7 8 9 9 9 10 9 10 12 12 12 12 11 9 9 10 10 8 6 5 6 6 4 4 5 5 6 7 9 9 9 9 9 8 9 9 8
17 17 16 15 16 15 13 13 15 15 14 13 13 12 11 11 12 12 10 9 9 9 8 9 9 11 11 9 9 7 8 8 6 7 8 8 8 8 7 6 5 5 5 5 5 6 6 6 7 8 8 8 9 11 11 11 12 12 14 13 9 8 10 12 10 10 9 7 7 7 5 4 4 5 7 8 8 9 9 10 9 9 10 10 9
17 17 16 15 16 15 14 14 14 15 14 13 12 12 12 12 13 14 12 10 11 10 10 9 9 10 11 9 8 7 8 7 6 6 8 9 9 8 7 6 5 5 6 5 6 8 6 7 9 10 9 8 10 12 11 11 11 10 13 13 9 9 11 12 11 10 9 8 8 8 6 5 4 5 7 8 8 10 10 10 9 10 10 9 9
17 17 17 16 16 15 14 15 14 14 13 12 12 13 13 12 13 13 13 12 12 12 11 10 10 10 10 9 8 7 8 7 6 6 6 7 8 7 6 5 4 5 7 6 6 8 8 9 10 11 11 11 12 13 12 13 12 9 11 13 12 12 12 12 11 10 8 8 10 9 8 7 6 6 8 8 9 11 12 11 10 11 11 9 9
17 19 17 16 16 16 15 15 14 13 13 12 12 12 12 12 11 11 12 12 11 11 11 10 11 10 10 10 9 8 7 6 6 6 5 7 6 5 5 6 6 6 8 6 6 8 8 9 11 11 11 14 14 12 10 12 13 11 10 12 14 14 14 12 11 11 9 7 9 10 9 9 7 7 8 8 9 11 13 12 11 11 11 10 9
18 19 17 16 16 16 16 15 14 13 13 12 11 11 12 12 10 10 10 9 9 9 8 9 9 9 9 10 9 8 6 5 5 4 4 5 4 3 5 5 5 7 8 7 6 7 8 9 11 12 11 12 13 11 9 8 9 10 10 10 12 12 12 12 12 12 10 8 10 11 12 11 9 8 9 9 9 11 14 14 12 12 12 11 10
18 19 16 17 17 16 15 15 14 13 13 12 11 10 11 11 9 9 9 8 8 8 7 8 9 9 9 9 8 7 6 5 5 2 2 3 3 4 5 4 4 7 8 8 7 7 9 9 10 11 11 12 13 14 12 9 8 9 9 9 11 13 13 13 14 13 12 13 12 14 15 14 12 10 10 10 10 11 14 15 14 14 13 11 11
17 17 16 16 16 15 15 14 14 13 13 12 11 10 11 11 10 9 9 8 8 8 7 7 8 8 8 8 8 7 5 6 5 3 2 3 4 5 6 5 6 7 8 8 7 7 9 10 10 12 14 15 15 15 15 14 13 12 10 8 9 12 14 15 14 13 14 15 13 16 17 16 15 12 12 11 11 12 14 16 15 15 14 13 12
15 15 16 16 16 15 14 14 13 13 13 12 10 10 10 10 10 9 8 7 7 7 7 7 7 6 6 7 7 7 6 7 6 4 4 3 4 5 7 7 7 8 8 7 8 7 9 11 12 13 14 15 17 17 16 17 17 16 14 12 11 11 12 14 14 14 15 13 12 16 18 17 17 14 14 14 12 13 14 16 17 16 15 15 14
14 15 15 15 15 15 14 13 12 13 12 12 11 9 9 9 8 8 7 7 7 6 6 6 6 5 6 6 6 6 6 7 7 5 5 4 4 5 6 7 8 9 9 7 7 7 9 11 13 14 14 15 16 17 17 17 17 17 17 17 15 13 13 13 13 14 14 14 14 15 15 17 17 15 15 16 14 14 15 16 18 18 16 14 15
13 14 15 15 14 14 14 12 11 11 11 11 11 9 8 7 7 7 6 6 6 5 6 5 5 5 5 6 6 6 6 7 7 6 5 4 4 4 4 6 7 9 10 10 9 9 8 9 11 12 13 13 14 15 15 16 17 17 19 20 19 17 14 13 15 17 13 11 13 15 15 15 16 17 17 18 17 15 15 17 18 19 17 15 16
12 13 14 14 14 13 13 11 11 11 10 11 10 9 8 7 6 6 5 5 5 5 5 5 5 4 4 5 5 6 6 6 6 5 5 5 5 4 4 6 7 9 11 11 11 10 8 7 9 10 11 12 13 15 16 18 19 19 21 22 20 18 17 17 16 16 14 13 12 13 15 17 16 17 18 19 20 18 16 17 19 20 19 17 18
11 12 13 12 12 12 11 11 11 11 10 9 9 8 8 6 6 5 5 5 5 4 4 4 5 4 5 5 5 6 6 6 6 5 6 5 5 5 5 6 8 10 11 11 11 11 10 9 9 10 10 11 12 16 18 18 20 20 21 23 22 20 20 22 20 15 15 15 14 14 16 16 16 18 19 19 21 20 18 17 18 20 20 20 19
11 12 12 11 11 10 10 11 11 11 10 9 9 8 7 7 6 5 5 5 5 4 4 4 4 4 5 5 5 6 6 6 6 6 6 6 6 6 6 6 8 10 10 11 12 12 12 11 11 11 11 10 10 15 17 15 16 18 19 21 22 22 22 23 22 18 15 15 16 18 19 16 16 19 19 18 19 20 19 18 19 20 21 21 20
10 11 12 12 11 10 11 11 11 11 10 10 9 8 7 7 6 5 5 5 5 4 4 4 4 5 5 5 5 6 7 7 7 6 7 7 6 7 7 7 7 8 9 10 12 11 11 11 11 11 11 10 10 15 17 13 12 15 18 20 21 22 22 22 22 21 19 17 17 17 17 16 18 21 20 18 17 17 18 19 20 20 20 21 21
11 11 12 12 12 13 12 11 11 11 11 11 10 8 8 7 6 6 6 6 5 4 4 4 5 5 4 4 5 6 6 6 7 7 7 6 7 8 8 7 7 7 8 9 10 10 10 11 12 12 11 10 11 16 17 13 12 15 16 18 20 21 21 21 22 23 22 20 19 19 16 13 17 20 19 18 18 17 17 18 20 22 21 22 22
12 12 12 13 13 13 12 11 11 12 12 11 11 10 10 9 8 8 7 7 7 6 6 4 4 3 1 2 3 4 5 6 6 6 7 6 7 8 8 8 8 8 9 10 9 8 9 11 12 12 11 10 14 18 16 14 15 17 17 18 21 22 22 22 22 23 22 20 20 21 20 14 16 19 19 19 20 20 18 18 20 21 21 22 22
12 12 13 13 13 13 13 13 13 13 13 13 14 14 13 12 11 10 10 10 8 7 6 4 2 2 1 2 3 4 5 6 6 6 7 6 6 7 8 9 9 10 11 11 11 10 10 12 13 12 10 10 17 19 16 13 12 12 14 16 20 22 23 23 24 24 24 22 21 21 22 18 15 18 21 22 22 21 21 20 20 20 21 22 21
12 13 14 14 13 14 14 13 12 12 13 13 12 11 11 11 9 9 7 5 6 5 4 4 3 2 1 2 3 4 5 6 6 7 8 8 8 8 8 9 9 11 12 11 12 12 11 12 13 14 12 13 18 19 15 12 9 8 8 8 12 16 19 20 23 25 26 25 23 22 24 22 18 15 18 23 21 21 22 21 20 19 19 20 19
12 13 13 14 14 13 13 13 11 11 11 11 8 5 8 9 7 7 6 4 4 3 4 3 2 1 2 2 3 4 5 6 7 7 8 8 10 11 10 10 11 12 13 12 12 12 13 15 16 16 15 15 18 19 15 13 11 9 5 4 4 6 8 11 16 22 25 26 25 24 24 24 22 17 17 21 21 21 21 22 23 21 19 20 20
15 14 14 15 15 14 13 12 10 9 8 8 7 6 8 7 6 6 6 6 5 3 4 3 2 2 2 2 3 4 5 6 6 7 8 8 9 10 11 12 13 13 13 13 13 14 14 15 15 16 16 14 16 17 14 14 14 10 4 2 1 1 3 3 7 15 20 24 26 25 25 24 23 20 18 20 21 22 23 23 25 23 21 22 22
16 16 17 16 15 14 13 12 10 9 8 7 7 7 7 6 6 6 6 6 6 4 4 4 3 3 2 2 3 3 4 5 6 6 7 8 8 9 10 11 13 13 14 14 14 13 13 14 14 14 16 16 15 16 14 14 16 16 11 6 2 1 2 1 3 7 11 16 20 22 24 24 23 22 19 19 20 22 23 24 24 24 23 24 23
16 16 16 15 14 14 13 12 11 10 9 8 8 8 7 6 7 8 7 6 7 5 4 3 2 2 3 3 4 4 3 4 6 6 6 7 8 10 11 10 11 12 13 15 14 13 13 13 13 14 15 16 16 15 14 14 16 19 19 16 12 7 3 2 3 3 6 11 16 19 21 21 22 22 21 21 20 21 22 24 25 25 25 25 24
16 14 14 14 14 14 13 13 12 11 10 9 9 8 8 7 7 8 7 6 7 5 2 2 2 1 2 4 4 4 4 4 5 7 7 8 8 10 11 11 12 12 13 14 15 14 14 13 13 14 15 17 16 15 15 15 14 16 18 20 21 17 11 6 3 2 5 8 10 14 18 18 20 20 18 19 21 20 22 26 27 27 27 25 25
14 13 13 14 14 14 13 13 12 11 10 10 9 8 8 8 8 8 7 6 6 4 3 3 3 2 3 5 4 4 4 5 6 8 8 8 9 11 12 12 13 13 13 13 14 14 14 14 14 14 15 16 16 16 16 16 14 14 15 17 18 18 17 15 12 7 3 4 6 9 13 16 18 20 15 13 20 21 22 26 27 28 28 26 26
14 14 14 14 14 14 13 13 11 11 10 10 9 9 9 9 8 9 8 6 5 3 3 3 3 2 4 5 5 5 5 5 7 8 8 9 10 11 12 13 14 14 14 14 14 14 14 14 15 15 14 14 15 16 17 18 17 15 14 14 14 15 16 17 17 14 8 6 6 5 8 11 13 20 19 12 19 22 22 24 26 29 29 26 27
15 14 14 14 14 14 13 13 11 11 11 10 10 10 9 9 8 8 8 7 5 3 2 2 3 4 5 5 6 6 6 7 9 9 10 12 11 11 12 13 13 14 15 15 15 15 15 15 15 15 15 16 16 17 17 18 18 18 17 16 15 14 12 10 12 15 12 8 7 6 8 9 7 12 17 13 18 22 21 21 25 27 28 26 28
16 15 15 14 14 13 13 13 12 12 11 10 10 10 9 9 9 9 8 7 5 3 3 4 5 5 6 6 6 7 7 9 10 11 12 13 11 12 13 14 14 15 15 15 15 16 17 17 17 16 17 17 17 17 17 18 17 17 18 18 19 18 14 10 11 14 10 7 7 6 9 12 11 11 14 12 15 19 19 20 24 26 28 29 29
Wind_Direction
150 151 149 148 147 154 154 152 152 150 148 143 138 132 128 126 124 122 119 118 116 116 116 115 115 116 120 121 122 120 118 108 102 96 96 104 110 119 121 118 114 109 102 100 97 94 97 92 91 94 106 122 120 120 120 116 112 106 97 94 93 97 100 104 109 113 103 97 109 117 108 90 79 73 76 84 96 99 95 96 94 100 98 96 104
146 139 140 142 143 153 155 152 153 150 148 143 138 134 133 131 127 124 120 120 118 118 117 116 115 114 116 115 116 115 113 106 102 100 104 111 115 120 120 117 114 109 104 104 102 101 102 95 89 91 109 124 120 119 123 119 112 103 91 88 84 109 124 123 126 119 111 111 116 119 111 91 77 72 83 95 101 101 95 98 103 102 91 95 96
137 136 142 144 147 153 157 156 155 151 147 143 140 140 138 135 131 128 124 123 120 119 118 117 116 116 115 112 113 111 109 108 105 105 108 113 115 117 114 112 110 106 105 106 105 108 109 97 93 102 119 127 123 122 124 119 112 107 97 89 89 116 137 137 132 128 127 125 126 125 109 88 78 76 86 101 105 103 98 94 103 105 95 101 90
140 141 147 150 152 153 159 158 154 151 148 147 146 144 141 138 134 132 128 126 123 121 119 118 119 119 117 114 113 110 110 108 106 106 108 109 107 107 108 105 102 103 104 107 107 112 112 100 106 120 129 129 127 128 126 121 116 111 103 97 100 112 125 134 134 136 135 129 129 123 110 90 83 84 89 106 111 111 105 91 94 97 98 106 91
145 145 151 153 152 154 159 156 154 153 152 151 149 147 144 141 139 137 133 129 125 121 118 117 119 119 118 116 112 110 109 107 107 107 106 105 101 100 104 104 101 105 107 109 110 116 115 104 117 131 137 133 131 132 131 125 120 116 108 106 108 115 124 135 141 145 143 132 124 121 124 107 88 90 99 115 119 116 104 82 81 83 90 96 92
147 151 150 148 151 156 159 156 156 155 154 153 150 149 146 145 143 140 136 130 124 118 115 115 115 117 117 116 112 107 105 106 107 105 108 104 100 95 92 99 101 105 112 117 118 122 118 111 126 140 142 136 133 135 135 127 124 121 115 114 115 120 128 135 140 148 152 148 137 134 143 128 100 98 106 120 126 111 95 90 92 92 94 100 104
146 151 148 148 154 159 162 160 158 157 157 155 152 150 148 146 144 139 135 128 120 113 110 111 112 113 112 110 105 98 94 97 102 103 104 99 97 94 91 106 118 122 128 130 129 127 119 126 140 145 142 136 137 137 134 130 127 124 121 120 123 128 132 135 141 152 164 172 160 155 160 142 118 106 107 119 129 111 98 106 110 109 103 101 108
146 151 149 149 157 161 163 161 158 157 156 153 151 149 147 144 141 137 131 124 115 109 107 108 109 109 108 106 101 97 91 90 99 100 95 93 94 94 99 122 138 143 146 112 111 122 132 145 145 143 140 138 141 138 135 134 129 124 122 121 127 138 139 146 154 169 190 199 197 192 177 157 148 116 113 120 128 114 103 120 128 126 116 91 89
148 151 148 144 149 156 158 158 154 151 150 148 148 146 145 141 139 135 129 121 112 108 108 108 109 109 110 111 107 104 101 98 100 99 96 95 89 90 102 100 118 152 157 79 89 118 153 154 143 142 140 139 143 140 139 138 132 128 126 119 125 142 153 164 171 205 217 230 232 209 177 162 174 142 121 123 125 117 111 143 136 126 127 96 91
144 144 141 137 140 146 150 153 149 144 144 144 144 145 144 143 142 140 135 125 118 116 116 118 118 117 118 118 116 111 109 108 106 104 102 97 90 87 85 79 95 121 98 128 154 138 151 147 138 140 139 142 150 145 143 142 137 134 130 117 115 147 194 195 221 252 259 273 261 196 164 160 170 153 128 122 123 123 118 143 141 134 140 109 98
139 137 135 136 138 139 144 150 151 147 145 143 145 147 148 149 149 148 142 133 126 123 123 124 122 122 120 118 119 116 114 111 108 106 101 97 91 79 67 71 88 102 106 124 134 132 140 138 133 135 137 148 156 150 149 149 146 146 139 109 85 93 254 249 262 288 301 280 236 158 162 162 170 160 131 123 126 136 133 145 152 157 159 121 110
135 135 140 142 140 140 143 149 155 155 151 150 151 153 155 156 156 155 150 143 135 131 130 127 127 126 121 115 114 115 116 111 105 102 102 100 91 81 74 73 87 100 107 115 120 122 126 128 130 136 143 156 160 158 161 161 167 170 166 287 6 2 338 288 282 308 323 309 163 149 163 163 172 155 128 130 132 144 151 153 157 157 143 120 119
133 136 144 145 141 144 144 146 152 154 154 151 152 157 159 161 160 159 155 149 142 138 138 135 136 134 129 124 118 117 117 112 108 107 106 101 92 91 88 84 97 108 111 114 117 118 121 125 136 151 161 168 171 171 177 181 195 215 236 272 300 329 344 333 318 327 337 354 84 161 166 167 168 139 129 141 140 150 156 154 139 127 125 123 122
136 137 142 144 144 145 144 145 148 149 150 148 148 152 156 161 160 158 156 150 145 141 142 141 140 140 139 134 125 121 120 118 114 113 106 97 94 93 94 94 102 113 117 118 122 125 127 133 144 162 173 178 181 180 190 197 211 233 248 274 287 314 333 331 329 326 316 313 321 162 164 170 158 133 141 159 156 153 148 141 134 129 130 127 126
138 139 141 144 146 145 147 147 148 150 149 149 147 148 152 158 159 156 154 149 147 145 145 144 142 142 141 136 129 126 126 129 126 124 117 105 101 99 99 100 104 116 122 122 129 134 134 133 134 148 165 179 184 185 198 208 222 242 252 274 290 311 325 315 315 307 297 291 276 164 163 166 152 151 184 184 159 152 145 138 137 138 144 138 133
137 140 141 144 147 147 150 150 152 154 150 152 149 149 150 152 157 152 150 147 146 147 147 147 145 144 141 132 127 130 132 139 144 141 132 117 111 111 109 108 108 118 128 133 137 141 141 135 133 144 162 178 185 192 206 221 230 246 262 276 295 311 319 320 321 306 302 315 293 174 170 175 179 204 207 177 159 157 150 142 144 145 151 153 148
136 140 141 142 147 148 150 152 154 154 153 154 150 153 151 148 151 149 151 146 146 149 150 152 151 148 142 131 124 127 128 133 147 150 147 136 127 123 119 114 109 113 130 143 147 152 155 150 151 157 176 193 198 207 217 231 239 253 271 279 294 310 321 323 320 304 298 307 306 172 190 199 207 220 193 170 163 162 153 150 153 149 157 164 158
138 141 143 143 145 146 149 154 154 153 157 155 154 158 152 148 149 151 156 150 149 148 150 157 161 160 148 136 127 123 120 121 136 151 167 165 161 149 136 130 119 118 124 135 149 160 167 167 172 179 197 213 219 224 227 239 250 261 273 280 292 309 318 313 308 298 288 301 33 161 209 213 210 206 183 172 167 163 157 157 159 154 161 168 160
141 143 145 145 145 146 149 155 154 155 160 157 158 163 159 157 158 160 162 158 154 148 153 159 170 178 164 149 137 129 119 113 117 126 151 171 184 178 160 155 149 147 142 145 159 166 181 190 193 197 208 221 230 235 239 248 259 266 272 278 290 307 308 304 306 304 292 298 95 169 220 233 208 190 181 173 169 166 160 161 164 161 167 171 163
142 145 147 148 148 150 152 155 156 160 161 158 161 168 170 169 168 168 167 163 158 152 154 158 171 185 177 165 150 140 127 116 115 114 123 134 148 172 194 195 185 183 178 193 202 188 196 209 210 210 217 228 237 242 246 255 264 270 273 275 285 299 298 296 296 294 302 334 193 217 304 268 208 184 182 170 168 169 165 168 169 166 174 178 170
144 148 150 150 152 153 155 157 158 162 161 161 167 174 176 174 174 171 173 172 165 159 157 164 173 177 179 173 161 155 161 162 148 144 139 128 138 174 204 227 222 207 200 209 230 229 225 227 222 223 232 244 249 251 254 262 269 271 275 275 280 285 283 294 295 285 291 328 225 257 306 258 207 186 181 168 169 172 172 176 174 171 178 180 176
149 150 151 152 155 157 158 160 159 162 163 163 169 177 176 172 177 173 176 180 174 171 165 169 174 180 184 174 171 170 188 203 184 183 193 171 160 175 197 224 228 222 222 221 234 241 241 240 235 234 237 248 257 263 267 277 283 281 279 275 278 278 277 291 292 285 278 255 234 259 291 251 213 194 182 173 170 174 179 184 184 179 182 187 185
153 149 151 155 159 161 161 162 159 162 165 165 168 180 178 171 180 179 180 184 181 181 173 173 179 197 200 186 192 192 200 213 203 197 201 196 195 188 195 220 219 226 233 231 242 243 245 248 246 244 242 248 253 263 267 268 275 281 281 274 273 273 278 285 277 276 258 236 250 257 269 243 217 200 188 182 174 176 184 188 192 185 186 194 191
156 147 150 157 160 165 165 162 160 160 162 165 168 178 177 172 183 184 184 190 189 191 188 188 192 206 209 205 211 202 203 218 216 204 199 201 210 209 204 217 215 222 230 236 249 251 251 246 252 253 242 246 251 257 257 253 256 260 269 272 272 267 276 282 271 266 246 232 253 249 254 239 218 211 198 189 174 177 190 190 193 191 193 197 197
152 144 152 159 157 163 166 161 162 163 163 168 170 175 177 176 185 186 188 193 197 202 207 204 203 212 210 212 222 206 205 222 221 209 207 208 215 218 211 211 213 224 238 238 237 247 254 240 252 258 242 239 241 247 247 252 258 249 256 268 272 263 268 274 267 259 246 234 244 239 244 238 222 219 206 199 181 183 197 197 195 197 200 202 207
147 144 153 156 154 159 165 164 164 165 166 173 173 174 179 181 189 190 189 195 200 205 213 211 210 219 214 215 225 215 211 223 226 210 212 217 215 214 211 212 206 221 248 246 232 237 241 235 242 250 255 243 230 242 245 252 266 257 254 255 251 254 256 261 265 262 250 240 247 245 240 236 235 228 215 208 196 193 197 199 200 198 201 204 209
149 146 151 151 153 157 164 166 166 167 169 174 171 174 180 187 198 196 189 196 201 203 211 212 211 217 217 219 220 219 217 219 229 219 216 228 226 218 211 220 214 220 243 245 241 243 242 244 244 247 259 254 238 243 244 244 251 250 251 248 242 246 248 255 261 259 261 257 252 244 234 239 246 235 223 215 206 197 194 199 199 196 198 202 210
150 145 150 150 154 160 164 166 166 169 172 172 172 176 177 188 202 196 191 197 201 205 214 214 214 214 213 220 220 223 225 219 230 228 227 237 237 235 220 215 215 229 248 248 245 250 252 256 257 257 263 261 253 252 253 246 240 232 239 255 255 246 240 249 258 257 263 258 250 243 230 237 244 236 228 220 215 200 193 202 198 195 201 202 212
145 142 149 151 156 163 164 166 167 167 172 173 175 177 172 183 196 191 195 200 197 205 216 214 218 220 214 218 218 224 228 227 237 231 241 246 236 246 237 218 217 232 239 243 245 248 252 255 261 267 275 277 269 271 281 268 248 237 239 255 265 261 246 243 250 261 261 244 247 249 236 234 238 233 229 221 219 201 193 208 203 196 205 205 211
137 140 148 152 158 164 164 167 169 167 170 171 175 176 170 178 184 186 197 202 199 204 211 210 217 222 221 220 217 224 228 232 243 235 250 266 259 259 254 243 250 249 236 235 247 252 253 254 262 269 275 280 275 277 284 280 267 259 254 249 256 263 260 252 246 245 249 248 250 248 240 237 235 231 230 223 222 206 195 208 206 196 205 208 210
133 141 149 156 159 163 167 169 170 170 170 169 173 174 173 176 176 183 194 198 198 200 206 211 219 222 226 228 221 221 226 230 230 216 225 259 261 257 255 245 241 250 246 242 248 252 254 253 258 264 267 271 275 277 281 285 283 276 275 279 278 267 257 254 244 236 248 255 250 244 243 238 234 233 231 223 221 214 201 204 204 199 204 207 211
141 151 153 156 160 164 168 169 171 172 171 170 171 170 171 175 174 178 184 191 194 197 207 212 219 223 227 234 231 223 221 235 237 219 218 247 262 259 265 264 252 254 257 254 255 257 262 264 263 265 272 274 274 276 279 285 287 282 281 290 303 298 279 263 247 243 244 244 242 241 242 237 233 234 233 227 221 216 207 202 203 205 205 205 211
155 154 148 153 163 167 166 169 173 173 174 171 170 168 168 173 175 176 177 185 192 199 210 213 217 223 231 235 236 231 221 237 253 245 226 233 251 257 274 280 276 277 276 273 271 268 270 274 274 274 279 281 279 281 285 287 289 288 285 287 292 295 298 290 276 266 242 229 236 235 237 237 234 234 232 229 223 216 211 203 201 208 209 203 209
152 141 139 155 166 165 162 168 174 176 178 173 169 168 166 168 170 171 173 181 190 203 212 215 217 221 238 242 236 238 233 234 250 263 254 245 246 254 275 276 277 283 280 273 271 274 277 274 275 278 277 279 282 282 285 286 288 289 286 286 286 284 286 291 297 291 271 249 245 239 239 238 237 237 231 227 225 218 213 207 201 208 211 204 209
141 134 139 155 160 158 157 161 171 173 174 171 169 171 169 166 164 167 173 180 189 203 210 211 218 223 236 249 249 244 244 241 244 254 253 251 254 252 253 257 260 268 270 264 261 266 272 270 272 279 276 276 280 279 279 279 281 283 283 282 281 279 275 278 291 293 287 276 258 249 242 230 233 241 234 226 224 220 216 213 206 206 210 209 213
139 139 145 156 156 156 156 155 163 164 163 167 169 170 171 169 164 170 180 183 190 204 211 212 217 228 232 244 255 251 251 255 257 254 247 251 259 250 242 249 253 257 260 256 251 253 256 258 263 270 274 278 283 284 281 278 278 278 280 282 278 274 270 272 278 280 283 278 260 248 238 229 233 239 237 229 223 222 219 217 213 209 210 212 217
144 146 154 161 156 156 160 158 160 159 159 167 171 174 178 175 170 181 190 189 199 208 218 226 228 236 242 246 252 257 262 264 266 263 255 254 255 251 248 249 253 257 257 250 248 252 253 253 257 263 270 275 282 284 280 276 276 278 279 281 279 275 271 268 269 269 274 280 273 251 234 236 240 232 230 226 224 226 223 222 219 216 213 212 218
145 159 163 158 157 161 164 161 159 159 160 163 169 175 174 170 172 186 192 193 204 214 220 229 238 240 246 257 262 268 271 272 274 273 267 262 260 262 257 247 249 254 255 253 254 257 259 258 259 260 260 263 271 275 274 272 272 278 281 282 282 279 274 267 263 263 265 272 277 258 236 239 241 230 224 223 225 228 228 227 223 220 218 215 219
155 168 162 157 161 161 158 156 155 157 161 164 168 171 168 168 177 185 193 196 193 207 215 217 234 235 243 262 271 277 279 281 282 281 280 277 269 268 267 264 260 255 253 257 261 263 266 263 260 259 259 263 266 267 268 266 266 274 279 283 285 280 275 269 264 263 263 262 267 267 261 241 225 227 227 223 224 225 228 230 224 221 222 220 221
163 165 161 160 162 157 153 157 160 162 165 167 169 171 169 174 183 186 196 199 189 201 209 209 229 224 245 294 300 304 306 305 298 293 290 287 282 276 275 274 266 259 255 253 256 260 263 263 264 266 269 271 267 264 263 262 269 277 279 279 279 277 274 273 271 268 262 258 261 269 272 248 222 237 242 229 224 223 225 229 225 220 222 224 223
163 164 166 166 164 160 157 162 167 170 171 172 177 180 175 177 186 189 197 196 181 187 193 179 174 150 56 352 343 331 333 333 326 322 314 305 297 285 281 279 272 268 266 263 264 264 260 261 267 265 260 265 267 262 255 255 268 277 277 274 273 274 273 271 272 270 263 257 259 264 268 258 243 249 241 226 221 220 222 226 225 223 223 225 225
166 171 172 169 165 159 158 164 172 179 180 176 178 180 166 162 171 175 181 175 153 146 135 134 133 111 36 5 347 329 334 339 338 337 330 326 321 307 297 290 284 282 281 279 274 268 261 258 261 262 256 257 264 261 250 246 248 255 268 279 281 280 275 271 271 271 264 256 255 259 264 262 256 244 223 217 217 217 224 227 225 223 221 223 228
172 178 171 163 159 157 157 162 168 173 173 163 153 143 137 138 132 138 138 112 128 129 89 96 111 58 24 7 349 341 340 332 331 333 327 325 323 319 315 304 296 292 287 283 277 271 268 263 259 259 256 255 261 260 248 238 233 238 259 272 280 294 285 272 268 270 265 257 254 254 257 260 259 250 230 224 221 219 225 229 225 220 215 218 226
173 175 165 161 159 157 155 154 154 148 145 140 134 130 135 134 114 124 133 112 122 135 92 92 79 47 28 25 11 360 351 337 333 333 327 323 320 318 317 312 307 303 296 290 285 277 271 269 264 256 253 254 260 259 248 239 231 223 227 245 222 280 280 274 275 275 269 259 253 250 252 254 255 254 242 228 223 226 230 227 224 220 215 217 221
172 170 165 163 157 152 149 147 145 142 143 139 136 136 135 134 127 137 145 124 119 113 89 82 69 42 21 30 10 350 353 344 336 337 333 329 328 323 318 315 312 309 303 297 290 281 274 272 268 261 260 257 256 259 257 246 235 225 222 228 218 221 261 336 339 292 274 259 249 247 250 251 253 252 240 227 223 229 234 229 224 221 219 222 223
170 168 164 160 153 151 150 148 147 148 151 143 139 144 143 150 155 154 154 137 121 106 85 75 68 10 345 332 314 315 330 332 326 326 323 320 326 325 321 321 319 318 315 309 303 296 291 285 274 269 271 264 256 262 264 254 246 238 233 236 242 246 263 342 354 305 294 277 258 249 249 252 255 250 240 234 222 219 231 234 228 224 223 224 225
166 163 158 155 153 152 150 149 147 145 142 136 137 142 141 142 142 137 135 126 119 118 139 198 204 255 311 302 303 316 318 318 315 310 310 315 318 315 314 316 315 318 319 317 315 311 306 300 291 280 274 271 266 266 265 262 259 251 246 245 244 244 249 261 267 286 309 294 272 261 255 255 257 253 247 233 220 223 233 232 228 227 226 225 225
157 156 154 154 153 152 148 145 143 138 135 135 138 142 140 135 130 127 124 123 128 140 176 196 197 225 278 285 293 307 303 304 309 307 309 314 312 308 307 308 310 314 316 314 315 315 315 311 308 296 280 275 273 266 264 269 269 263 264 260 250 246 249 252 251 247 270 284 284 280 267 261 256 255 258 222 212 226 227 219 223 227 226 226 228
158 160 156 154 150 149 145 140 139 136 137 141 144 148 145 141 137 133 133 136 142 153 176 186 198 242 275 276 277 289 292 295 306 306 302 304 305 303 303 304 307 311 310 311 310 310 313 312 311 309 295 284 279 272 268 270 271 270 272 269 261 252 247 252 250 237 230 246 263 275 269 271 257 250 255 219 194 207 213 217 229 230 226 227 231
164 160 154 152 149 147 145 143 143 143 146 147 147 150 148 147 143 140 145 146 145 159 194 221 237 246 261 269 276 287 287 294 305 299 292 298 302 298 299 301 302 303 303 306 308 308 310 309 307 308 304 297 290 282 276 273 270 267 268 268 268 258 244 248 245 232 229 235 245 258 255 262 260 249 255 230 190 194 206 224 233 230 229 229 229
161 158 156 153 151 152 151 151 151 153 155 154 155 156 153 153 150 149 155 149 145 173 211 233 245 246 259 270 278 284 284 292 300 295 290 294 293 289 292 294 294 295 296 297 301 303 305 305 303 301 299 298 293 287 283 279 274 268 267 263 259 255 248 245 239 232 232 228 234 257 253 251 254 255 259 244 210 203 209 228 233 228 230 231 230